Lemoore NAS, CA

2:46 PM PDT on April 24, 2017 (GMT -0700)
Lemoore Naval Air Station

Weather History for KNLC - December, 2012

Change the Weather History Date:

Thursday, December 6, 2012

  Actual Average Record
Temperature  
Mean Temperature 58 °F -  
Max Temperature 60 °F 55 °F 70 °F (2014)
Min Temperature 55 °F 37 °F 21 °F (2011)
Degree Days  
Heating Degree Days 8    
Growing Degree Days 8 (Base 50)    
Moisture  
Dew Point 53 °F    
Average Humidity 90    
Maximum Humidity 100    
Minimum Humidity 75    
Precipitation  
Precipitation 0.00 in - - ()
Sea Level Pressure  
Sea Level Pressure 30.10 in    
Wind  
Wind Speed 10 mph (NNW)    
Max Wind Speed 17 mph    
Max Gust Speed -    
Visibility 6 miles    
Events      
Averages and records for this station are not official NWS values.
T = Trace of Precipitation, MM = Missing Value Source: NWS Daily Summary

Daily Weather History Graph

Daily Weather History Graph

Search for Another Location

Airport or City:

Trip Planner

Search our weather history database for the weather conditions in past years. The results will help you decide how hot, cold, wet, or windy it might be!

Date:

Astronomy

Dec. 06, 2012 Rise Set
Actual Time 6:57 AM PST 4:44 PM PST
Civil Twilight 6:29 AM PST 5:13 PM PST
Nautical Twilight 5:57 AM PST 5:45 PM PST
Astronomical Twilight 5:25 AM PST 6:16 PM PST
Moon No Moon Rise 12:02 PM PST (12/6)
Length of Visible Light 10h 43m
Length of Day
9h 46m
Waning Gibbous, 48% of the Moon is Illuminated
Dec 6
Waning Gibbous
Dec 13
New
Dec 19
First Quarter
Dec 28
Full
Jan 4
Last Quarter

Hourly Weather History & Observations

Time (PST) Temp. Dew Point Humidity Pressure Visibility Wind Dir Wind Speed Gust Speed Precip Events Conditions
12:03 AM 55.4 °F 53.6 °F 94% 30.11 in - NW 6.9 mph - N/A   Overcast
12:10 AM 55.4 °F 53.6 °F 94% 30.11 in - NW 6.9 mph - N/A   Mostly Cloudy
12:19 AM 55.4 °F 55.4 °F 100% 30.11 in - NW 8.1 mph - N/A   Overcast
12:41 AM 55.4 °F 53.6 °F 94% 30.10 in - NNW 9.2 mph - N/A   Mostly Cloudy
12:48 AM 55.4 °F 55.4 °F 100% 30.10 in - NW 10.4 mph - N/A   Mostly Cloudy
12:56 AM 55.9 °F 55.0 °F 97% 30.10 in - NW 10.4 mph - N/A   Mostly Cloudy
1:56 AM 55.9 °F 55.9 °F 100% 30.10 in - NNW 10.4 mph - N/A   Overcast
2:56 AM 57.0 °F 55.9 °F 96% 30.09 in - NW 11.5 mph - N/A   Overcast
3:56 AM 55.9 °F 55.9 °F 100% 30.08 in - NNW 13.8 mph - N/A   Overcast
4:56 AM 55.9 °F 55.0 °F 97% 30.07 in - NNW 11.5 mph - N/A   Overcast
5:56 AM 55.0 °F 55.0 °F 100% 30.09 in - NNW 17.3 mph - N/A   Overcast
6:56 AM 55.0 °F 54.0 °F 96% 30.10 in - NNW 11.5 mph - 0.00 in   Overcast
7:14 AM 55.4 °F 53.6 °F 94% 30.10 in 3.0 mi NNW 11.5 mph - N/A   Overcast
7:56 AM 55.0 °F 54.0 °F 96% 30.11 in 1.5 mi NNW 11.5 mph - N/A   Overcast
8:14 AM 55.4 °F 53.6 °F 94% 30.11 in 1.5 mi NNW 11.5 mph - N/A   Overcast
8:56 AM 55.0 °F 54.0 °F 96% 30.12 in 1.5 mi NNW 13.8 mph - N/A   Overcast
9:42 AM 55.4 °F 53.6 °F 94% 30.12 in 5.0 mi NNW 12.7 mph - N/A   Overcast
9:56 AM 57.0 °F 54.0 °F 89% 30.13 in 5.0 mi NNW 15.0 mph - N/A   Overcast
10:46 AM 57.2 °F 53.6 °F 88% 30.11 in 5.0 mi NNW 11.5 mph - N/A   Overcast
10:56 AM 59.0 °F 54.0 °F 83% 30.11 in 5.0 mi NNW 12.7 mph - N/A   Haze
11:10 AM 59.0 °F 53.6 °F 82% 30.10 in 5.0 mi North 12.7 mph - N/A   Haze
11:56 AM 60.1 °F 53.1 °F 78% 30.09 in 6.0 mi NNW 11.5 mph - N/A   Haze
12:56 PM 60.1 °F 53.1 °F 78% 30.07 in 6.0 mi NW 9.2 mph - N/A   Haze
1:56 PM 60.1 °F 52.0 °F 75% 30.04 in 7.0 mi NNW 10.4 mph - N/A   Overcast
2:56 PM 60.1 °F 52.0 °F 75% 30.05 in 7.0 mi NNW 11.5 mph - N/A   Overcast
3:56 PM 59.0 °F 52.0 °F 78% 30.04 in 7.0 mi North 8.1 mph - N/A   Overcast
4:56 PM 57.9 °F 52.0 °F 81% 30.06 in 7.0 mi North 9.2 mph - N/A   Overcast
5:56 PM 57.0 °F 51.1 °F 81% 30.08 in 7.0 mi North 11.5 mph - N/A   Overcast
6:56 PM 55.9 °F 51.1 °F 84% 30.09 in 7.0 mi North 5.8 mph - N/A   Overcast
7:56 PM 55.0 °F 52.0 °F 89% 30.11 in 7.0 mi North 8.1 mph - N/A   Overcast
8:56 PM 55.9 °F 51.1 °F 84% 30.12 in 7.0 mi NNW 6.9 mph - N/A   Overcast
9:56 PM 55.0 °F 51.1 °F 86% 30.12 in 7.0 mi WNW 8.1 mph - N/A   Overcast
10:56 PM 55.0 °F 51.1 °F 86% 30.12 in 7.0 mi NNW 8.1 mph - N/A   Overcast
11:56 PM 55.0 °F 51.1 °F 86% 30.11 in 7.0 mi NNW 10.4 mph - N/A   Overcast